| time (UTC) | temp F | wind direction | speed knots | gust knots | rain 1hr in | rain 24hr in | rain mn in | humidity % | barometer mb |
| 20260504174844 | 75 | 235 | 1.7 | 1.7 | 0.00 | 0.00 | 0.00 | 44 | 1019.3 |
| 20260504174341 | 75 | 37 | 0.9 | 1.7 | 0.00 | 0.00 | 0.00 | 40 | 1019.4 |
| 20260504173837 | 75 | 68 | 0.9 | 1.7 | 0.00 | 0.00 | 0.00 | 41 | 1019.4 |
| 20260504173334 | 75 | 40 | 0.9 | 0.9 | 0.00 | 0.00 | 0.00 | 41 | 1019.7 |
| 20260504172831 | 74 | 39 | 0.9 | 1.7 | 0.00 | 0.00 | 0.00 | 41 | 1019.7 |
| 20260504172328 | 74 | 261 | 0.0 | 0.0 | 0.00 | 0.00 | 0.00 | 42 | 1019.6 |
| 20260504171824 | 74 | 203 | 0.0 | 0.9 | 0.00 | 0.00 | 0.00 | 43 | 1019.6 |
| 20260504171321 | 73 | 43 | 0.9 | 0.9 | 0.00 | 0.00 | 0.00 | 41 | 1019.5 |
| 20260504170818 | 73 | 171 | 0.9 | 0.9 | 0.00 | 0.00 | 0.00 | 42 | 1019.6 |
| 20260504170315 | 73 | 214 | 0.9 | 0.9 | 0.00 | 0.00 | 0.00 | 43 | 1020.1 |
| 20260504160233 | 69 | 76 | 0.9 | 1.7 | 0.00 | 0.00 | 0.00 | 46 | 1020.5 |
| 20260504150659 | 67 | 75 | 0.9 | 0.9 | 0.00 | 0.00 | 0.00 | 47 | 1020.7 |
| 20260504150155 | 66 | 155 | 0.9 | 1.7 | 0.00 | 0.00 | 0.00 | 48 | 1020.9 |
| 20260504141124 | 63 | 73 | 0.0 | 0.0 | 0.00 | 0.00 | 0.00 | 57 | 1021.1 |
| 20260504140621 | 63 | 47 | 0.9 | 0.9 | 0.00 | 0.00 | 0.00 | 57 | 1021.1 |
| 20260504140117 | 62 | 22 | 0.0 | 0.9 | 0.00 | 0.00 | 0.00 | 58 | 1021.1 |
| 20260504130545 | 57 | 147 | 0.0 | 0.0 | 0.00 | 0.00 | 0.00 | 73 | 1020.9 |
| 20260504110433 | 44 | 21 | 0.0 | 0.0 | 0.00 | 0.00 | 0.00 | 91 | 1020.7 |
| 20260504100349 | 44 | 24 | 0.0 | 0.0 | 0.00 | 0.00 | 0.00 | 92 | 1020.5 |
| 20260504081742 | 47 | 23 | 0.0 | 0.0 | 0.00 | 0.00 | 0.00 | 87 | 1020.2 |
| 20260504081239 | 47 | 13 | 0.0 | 0.0 | 0.00 | 0.00 | 0.00 | 86 | 1020.4 |
| 20260504080735 | 47 | 13 | 0.0 | 0.0 | 0.00 | 0.00 | 0.00 | 85 | 1020.0 |
| 20260504080232 | 47 | 13 | 0.0 | 0.0 | 0.00 | 0.00 | 0.00 | 85 | 1020.3 |
| 20260504070200 | 50 | 49 | 0.0 | 0.0 | 0.00 | 0.00 | 0.00 | 76 | 1020.6 |
| 20260504060120 | 51 | 176 | 0.0 | 0.0 | 0.00 | 0.00 | 0.00 | 74 | 1020.7 |
| 20260504050548 | 55 | 208 | 0.0 | 0.0 | 0.00 | 0.00 | 0.00 | 64 | 1020.8 |
| 20260504045542 | 55 | 64 | 0.0 | 0.0 | 0.00 | 0.00 | 0.00 | 60 | 1020.8 |
| 20260504045037 | 56 | 64 | 0.0 | 0.0 | 0.00 | 0.00 | 0.00 | 61 | 1020.6 |
| 20260504044535 | 56 | 148 | 0.0 | 0.0 | 0.00 | 0.00 | 0.00 | 59 | 1020.9 |
| 20260504044032 | 57 | 95 | 0.0 | 0.0 | 0.00 | 0.00 | 0.00 | 59 | 1020.9 |
| 20260504043529 | 57 | 133 | 0.0 | 0.0 | 0.00 | 0.00 | 0.00 | 59 | 1020.7 |
| 20260504043026 | 57 | 111 | 0.0 | 0.0 | 0.00 | 0.00 | 0.00 | 59 | 1020.8 |
| 20260504042523 | 57 | 199 | 0.0 | 0.0 | 0.00 | 0.00 | 0.00 | 58 | 1020.8 |
| 20260504042020 | 57 | 118 | 0.0 | 0.0 | 0.00 | 0.00 | 0.00 | 58 | 1020.5 |
| 20260504041516 | 57 | 93 | 0.0 | 0.0 | 0.00 | 0.00 | 0.00 | 58 | 1021.0 |
| 20260504041012 | 56 | 89 | 0.0 | 0.0 | 0.00 | 0.00 | 0.00 | 60 | 1021.1 |
| 20260504040510 | 55 | 108 | 0.0 | 0.9 | 0.00 | 0.00 | 0.00 | 63 | 1020.8 |
| 20260504040006 | 55 | 217 | 0.0 | 0.0 | 0.00 | 0.00 | 0.00 | 65 | 1020.8 |
| 20260504035503 | 54 | 256 | 0.0 | 0.0 | 0.00 | 0.00 | 0.00 | 65 | 1021.0 |
| 20260504034959 | 53 | 187 | 0.0 | 0.0 | 0.00 | 0.00 | 0.00 | 69 | 1021.0 |
| 20260504034457 | 53 | 104 | 0.0 | 0.0 | 0.00 | 0.00 | 0.00 | 70 | 1021.0 |
| 20260504033954 | 53 | 0 | 0.0 | 0.0 | 0.00 | 0.00 | 0.00 | 71 | 1021.0 |
| 20260504033452 | 53 | 359 | 0.0 | 0.0 | 0.00 | 0.00 | 0.00 | 71 | 1021.2 |
| 20260504032949 | 53 | 359 | 0.0 | 0.0 | 0.00 | 0.00 | 0.00 | 74 | 1021.1 |
| 20260504032446 | 52 | 359 | 0.0 | 0.0 | 0.00 | 0.00 | 0.00 | 73 | 1021.1 |
| 20260504031942 | 52 | 1 | 0.0 | 0.0 | 0.00 | 0.00 | 0.00 | 75 | 1021.1 |
| 20260504031439 | 52 | 59 | 0.0 | 0.0 | 0.00 | 0.00 | 0.00 | 76 | 1021.1 |
| 20260504030936 | 52 | 59 | 0.0 | 0.0 | 0.00 | 0.00 | 0.00 | 75 | 1021.2 |
| 20260504030433 | 52 | 59 | 0.0 | 0.0 | 0.00 | 0.00 | 0.00 | 74 | 1021.1 |
| 20260504025929 | 53 | 59 | 0.0 | 0.0 | 0.00 | 0.00 | 0.00 | 74 | 1021.0 |
| 20260504025426 | 53 | 59 | 0.0 | 0.0 | 0.00 | 0.00 | 0.00 | 72 | 1021.0 |
| 20260504024923 | 53 | 59 | 0.0 | 0.0 | 0.00 | 0.00 | 0.00 | 74 | 1021.1 |
| 20260504024420 | 53 | 59 | 0.0 | 0.0 | 0.00 | 0.00 | 0.00 | 72 | 1020.9 |
| 20260504023917 | 53 | 59 | 0.0 | 0.0 | 0.00 | 0.00 | 0.00 | 71 | 1021.0 |
| 20260504023413 | 53 | 59 | 0.0 | 0.0 | 0.00 | 0.00 | 0.00 | 71 | 1020.9 |
| 20260504022909 | 54 | 59 | 0.0 | 0.0 | 0.00 | 0.00 | 0.00 | 70 | 1020.6 |
| 20260504022406 | 54 | 59 | 0.0 | 0.0 | 0.00 | 0.00 | 0.00 | 70 | 1021.0 |
| 20260504021902 | 54 | 59 | 0.0 | 0.0 | 0.00 | 0.00 | 0.00 | 69 | 1020.8 |
| 20260504021400 | 54 | 59 | 0.0 | 0.0 | 0.00 | 0.00 | 0.00 | 68 | 1020.7 |
| 20260504020857 | 55 | 59 | 0.0 | 0.0 | 0.00 | 0.00 | 0.00 | 67 | 1020.7 |
| 20260504020353 | 55 | 59 | 0.0 | 0.0 | 0.00 | 0.00 | 0.00 | 67 | 1020.7 |
| 20260504015849 | 56 | 59 | 0.0 | 0.0 | 0.00 | 0.00 | 0.00 | 66 | 1020.6 |
| 20260504015346 | 56 | 59 | 0.0 | 0.0 | 0.00 | 0.00 | 0.00 | 65 | 1020.6 |
| 20260504014842 | 56 | 59 | 0.0 | 0.0 | 0.00 | 0.00 | 0.00 | 63 | 1020.5 |
| 20260504014338 | 57 | 59 | 0.0 | 0.0 | 0.00 | 0.00 | 0.00 | 62 | 1020.3 |
| 20260504013836 | 57 | 59 | 0.0 | 0.0 | 0.00 | 0.00 | 0.00 | 61 | 1020.3 |
| 20260504013333 | 57 | 59 | 0.0 | 0.0 | 0.00 | 0.00 | 0.00 | 60 | 1020.1 |
| 20260504012830 | 58 | 59 | 0.0 | 0.0 | 0.00 | 0.00 | 0.00 | 58 | 1020.1 |
| 20260504012328 | 59 | 59 | 0.0 | 0.0 | 0.00 | 0.00 | 0.00 | 56 | 1020.1 |
| 20260504011825 | 59 | 59 | 0.0 | 0.0 | 0.00 | 0.00 | 0.00 | 53 | 1020.1 |
| 20260504011321 | 60 | 59 | 0.0 | 0.0 | 0.00 | 0.00 | 0.00 | 52 | 1020.2 |
| 20260504010817 | 60 | 47 | 0.0 | 0.0 | 0.00 | 0.00 | 0.00 | 50 | 1020.3 |
| 20260504010313 | 60 | 64 | 0.0 | 0.0 | 0.00 | 0.00 | 0.00 | 49 | 1020.3 |
| 20260504005810 | 61 | 71 | 0.0 | 0.0 | 0.00 | 0.00 | 0.00 | 48 | 1020.0 |
| 20260504005307 | 61 | 99 | 0.0 | 0.0 | 0.00 | 0.00 | 0.00 | 49 | 1019.9 |
| 20260504004804 | 61 | 155 | 0.0 | 0.0 | 0.00 | 0.00 | 0.00 | 48 | 1019.8 |
| 20260504004302 | 61 | 105 | 0.0 | 0.0 | 0.00 | 0.00 | 0.00 | 47 | 1019.6 |
| 20260504003758 | 62 | 153 | 0.0 | 0.0 | 0.00 | 0.00 | 0.00 | 47 | 1019.5 |
| 20260504003255 | 62 | 193 | 0.0 | 0.9 | 0.00 | 0.00 | 0.00 | 47 | 1019.7 |
| 20260504002751 | 63 | 169 | 0.0 | 0.0 | 0.00 | 0.00 | 0.00 | 45 | 1019.8 |
| 20260504002249 | 63 | 141 | 0.0 | 0.9 | 0.00 | 0.00 | 0.00 | 44 | 1019.6 |
| 20260504001746 | 63 | 112 | 0.9 | 0.9 | 0.00 | 0.00 | 0.00 | 42 | 1019.6 |
| 20260504001243 | 64 | 226 | 0.0 | 0.0 | 0.00 | 0.00 | 0.00 | 43 | 1019.6 |
| 20260504000740 | 64 | 189 | 0.0 | 0.9 | 0.00 | 0.00 | 0.00 | 41 | 1019.5 |
| 20260504000237 | 64 | 282 | 0.9 | 0.9 | 0.00 | 0.00 | 0.00 | 41 | 1019.6 |
| 20260503235735 | 65 | 184 | 0.9 | 1.7 | 0.00 | 0.00 | 0.00 | 40 | 1019.5 |
| 20260503235232 | 65 | 136 | 0.0 | 0.0 | 0.00 | 0.00 | 0.00 | 39 | 1019.4 |
| 20260503234730 | 65 | 337 | 0.0 | 0.9 | 0.00 | 0.00 | 0.00 | 38 | 1019.4 |
| 20260503234228 | 66 | 84 | 0.9 | 0.9 | 0.00 | 0.00 | 0.00 | 37 | 1019.4 |
| 20260503233725 | 66 | 215 | 0.9 | 0.9 | 0.00 | 0.00 | 0.00 | 37 | 1019.6 |
| 20260503233220 | 66 | 139 | 0.9 | 1.7 | 0.00 | 0.00 | 0.00 | 37 | 1019.6 |
| 20260503232717 | 66 | 221 | 0.9 | 0.9 | 0.00 | 0.00 | 0.00 | 37 | 1019.5 |
| 20260503232214 | 66 | 55 | 0.0 | 0.0 | 0.00 | 0.00 | 0.00 | 36 | 1019.4 |
| 20260503231713 | 67 | 23 | 0.0 | 0.9 | 0.00 | 0.00 | 0.00 | 36 | 1019.5 |
| 20260503231209 | 67 | 109 | 0.9 | 1.7 | 0.00 | 0.00 | 0.00 | 36 | 1019.7 |
| 20260503230705 | 67 | 66 | 0.0 | 0.0 | 0.00 | 0.00 | 0.00 | 35 | 1019.4 |
| 20260503230202 | 67 | 148 | 0.0 | 0.9 | 0.00 | 0.00 | 0.00 | 36 | 1019.6 |
| 20260503225659 | 67 | 91 | 0.9 | 0.9 | 0.00 | 0.00 | 0.00 | 35 | 1019.5 |
| 20260503225154 | 68 | 55 | 0.0 | 0.0 | 0.00 | 0.00 | 0.00 | 35 | 1019.5 |
| 20260503224651 | 67 | 103 | 0.9 | 0.9 | 0.00 | 0.00 | 0.00 | 35 | 1019.5 |
| 20260503224149 | 68 | 72 | 1.7 | 2.6 | 0.00 | 0.00 | 0.00 | 34 | 1019.8 |
| 20260503223647 | 68 | 129 | 0.9 | 0.9 | 0.00 | 0.00 | 0.00 | 34 | 1019.6 |
| 20260503223143 | 68 | 50 | 0.9 | 0.9 | 0.00 | 0.00 | 0.00 | 34 | 1019.5 |
| 20260503222640 | 69 | 62 | 0.0 | 0.0 | 0.00 | 0.00 | 0.00 | 34 | 1019.7 |
| 20260503222138 | 68 | 91 | 0.9 | 0.9 | 0.00 | 0.00 | 0.00 | 33 | 1019.4 |
| 20260503221636 | 69 | 197 | 2.6 | 4.3 | 0.00 | 0.00 | 0.00 | 33 | 1019.6 |
| 20260503221133 | 69 | 141 | 0.0 | 0.9 | 0.00 | 0.00 | 0.00 | 32 | 1019.6 |
| 20260503220630 | 69 | 38 | 0.9 | 0.9 | 0.00 | 0.00 | 0.00 | 33 | 1019.4 |
| 20260503220127 | 69 | 82 | 0.0 | 0.9 | 0.00 | 0.00 | 0.00 | 34 | 1019.4 |
| 20260503215624 | 69 | 159 | 2.6 | 2.6 | 0.00 | 0.00 | 0.00 | 35 | 1019.7 |
| 20260503215120 | 69 | 70 | 0.0 | 0.9 | 0.00 | 0.00 | 0.00 | 35 | 1019.5 |
| 20260503214619 | 69 | 98 | 2.6 | 2.6 | 0.00 | 0.00 | 0.00 | 34 | 1019.6 |
| 20260503214115 | 69 | 358 | 1.7 | 1.7 | 0.00 | 0.00 | 0.00 | 33 | 1019.6 |
| 20260503213614 | 69 | 118 | 0.9 | 1.7 | 0.00 | 0.00 | 0.00 | 37 | 1019.8 |
| 20260503213110 | 70 | 83 | 0.9 | 0.9 | 0.00 | 0.00 | 0.00 | 34 | 1019.8 |
| 20260503212608 | 71 | 151 | 1.7 | 2.6 | 0.00 | 0.00 | 0.00 | 34 | 1019.7 |
| 20260503212105 | 71 | 258 | 2.6 | 4.3 | 0.00 | 0.00 | 0.00 | 33 | 1019.8 |
| 20260503211603 | 70 | 134 | 0.9 | 0.9 | 0.00 | 0.00 | 0.00 | 33 | 1020.0 |
| 20260503211057 | 70 | 86 | 1.7 | 1.7 | 0.00 | 0.00 | 0.00 | 33 | 1020.0 |
| 20260503210554 | 70 | 84 | 1.7 | 1.7 | 0.00 | 0.00 | 0.00 | 34 | 1019.8 |
| 20260503210050 | 71 | 293 | 0.0 | 0.9 | 0.00 | 0.00 | 0.00 | 33 | 1020.0 |
| 20260503205547 | 72 | 111 | 0.0 | 0.9 | 0.00 | 0.00 | 0.00 | 34 | 1019.7 |
| 20260503205044 | 72 | 67 | 0.9 | 0.9 | 0.00 | 0.00 | 0.00 | 33 | 1020.1 |
| 20260503204541 | 72 | 61 | 0.0 | 0.9 | 0.00 | 0.00 | 0.00 | 33 | 1020.0 |
| 20260503204038 | 71 | 110 | 0.9 | 1.7 | 0.00 | 0.00 | 0.00 | 32 | 1020.2 |
| 20260503203535 | 71 | 32 | 0.9 | 1.7 | 0.00 | 0.00 | 0.00 | 30 | 1020.2 |
| 20260503203032 | 71 | 12 | 0.9 | 0.9 | 0.00 | 0.00 | 0.00 | 33 | 1020.3 |
| 20260503202530 | 71 | 149 | 1.7 | 1.7 | 0.00 | 0.00 | 0.00 | 36 | 1020.3 |
| 20260503202027 | 71 | 327 | 0.0 | 0.9 | 0.00 | 0.00 | 0.00 | 35 | 1020.3 |
| 20260503201525 | 70 | 103 | 0.9 | 1.7 | 0.00 | 0.00 | 0.00 | 34 | 1020.6 |
| 20260503201022 | 70 | 99 | 0.9 | 1.7 | 0.00 | 0.00 | 0.00 | 32 | 1020.6 |
| 20260503200518 | 71 | 173 | 1.7 | 1.7 | 0.00 | 0.00 | 0.00 | 34 | 1020.7 |
| 20260503200015 | 70 | 291 | 3.5 | 5.2 | 0.00 | 0.00 | 0.00 | 33 | 1020.6 |
| 20260503195513 | 69 | 257 | 2.6 | 2.6 | 0.00 | 0.00 | 0.00 | 33 | 1020.8 |
| 20260503195009 | 69 | 233 | 1.7 | 2.6 | 0.00 | 0.00 | 0.00 | 38 | 1021.0 |
| 20260503194507 | 70 | 191 | 0.9 | 1.7 | 0.00 | 0.00 | 0.00 | 38 | 1021.1 |
| 20260503194006 | 70 | 174 | 1.7 | 1.7 | 0.00 | 0.00 | 0.00 | 38 | 1020.9 |
| 20260503193503 | 70 | 227 | 1.7 | 1.7 | 0.00 | 0.00 | 0.00 | 36 | 1021.2 |
| 20260503192958 | 70 | 232 | 1.7 | 1.7 | 0.00 | 0.00 | 0.00 | 39 | 1021.4 |
| 20260503192455 | 69 | 34 | 0.9 | 0.9 | 0.00 | 0.00 | 0.00 | 36 | 1021.5 |
| 20260503191950 | 70 | 169 | 0.9 | 1.7 | 0.00 | 0.00 | 0.00 | 38 | 1021.8 |
| 20260503191448 | 70 | 191 | 4.3 | 5.2 | 0.00 | 0.00 | 0.00 | 37 | 1021.8 |
| 20260503190944 | 69 | 32 | 0.9 | 1.7 | 0.00 | 0.00 | 0.00 | 38 | 1021.7 |
| 20260503190442 | 69 | 236 | 2.6 | 4.3 | 0.00 | 0.00 | 0.00 | 37 | 1021.7 |
| 20260503185939 | 69 | 260 | 2.6 | 4.3 | 0.00 | 0.00 | 0.00 | 36 | 1022.0 |
| 20260503185435 | 71 | 190 | 1.7 | 1.7 | 0.00 | 0.00 | 0.00 | 36 | 1021.9 |
| 20260503184934 | 69 | 45 | 0.9 | 0.9 | 0.00 | 0.00 | 0.00 | 37 | 1021.8 |
| 20260503184431 | 69 | 216 | 1.7 | 2.6 | 0.00 | 0.00 | 0.00 | 36 | 1021.9 |
| 20260503183927 | 68 | 65 | 0.9 | 0.9 | 0.00 | 0.00 | 0.00 | 38 | 1021.9 |
| 20260503183424 | 69 | 259 | 1.7 | 2.6 | 0.00 | 0.00 | 0.00 | 40 | 1022.1 |
| 20260503182921 | 68 | 58 | 0.9 | 0.9 | 0.00 | 0.00 | 0.00 | 42 | 1022.0 |
| 20260503182420 | 68 | 17 | 0.0 | 0.0 | 0.00 | 0.00 | 0.00 | 38 | 1022.2 |
| 20260503181917 | 68 | 254 | 2.6 | 4.3 | 0.00 | 0.00 | 0.00 | 40 | 1022.3 |
| 20260503181414 | 68 | 56 | 0.0 | 0.0 | 0.00 | 0.00 | 0.00 | 40 | 1022.2 |
| 20260503180910 | 68 | 211 | 0.9 | 1.7 | 0.00 | 0.00 | 0.00 | 40 | 1022.3 |
| 20260503180408 | 68 | 100 | 2.6 | 2.6 | 0.00 | 0.00 | 0.00 | 37 | 1022.4 |
| 20260503175904 | 66 | 276 | 0.9 | 0.9 | 0.00 | 0.00 | 0.00 | 39 | 1022.4 |
| 20260503175403 | 66 | 242 | 0.9 | 1.7 | 0.00 | 0.00 | 0.00 | 39 | 1022.3 |